Location: Sagn�
(15.2046°N, 12.7898°W)
Time: 11:56:36
(UTC+00:00)

Okean-O - Pass Details

Date: 08 May 2021
Orbit: 638 x 641 km, 98.2° (Epoch: 15 June)

Event Time Altitude Azimuth Distance (km) Brightness Sun altitude
Exits shadow 19:46:20 - 156° (SSE) 2,784 5.5 -8.9°
Reaches altitude 10° 19:48:13 10° 151° (SSE) 2,024 4.7 -9.4°
Maximum altitude 19:52:29 49° 77° (ENE) 825 2.9 -10.3°
Drops below altitude 10° 19:56:44 10° 2° (N) 2,027 5.5 -11.3°
Sets 19:58:59 0° 357° (N) 2,937 6.4 -11.8°
